DW8633 Weather Reports


Display with metric or nautical units.
time (UTC)temp
F
wind
direction
speed
MPH
gust
MPH
rain 1hr
in
rain 24hr
in
rain mn
in
humidity
%
barometer
mb
20260905064518 71 360 9.0 13.0 0.00 0.00 0.00 71 927.3
20260905064018 71 360 10.0 13.0 0.00 0.00 0.00 71 927.2
20260905063516 71 360 9.0 13.0 0.00 0.00 0.00 70 927.2
20260905063015 71 360 9.0 12.0 0.00 0.00 0.00 70 927.2
20260905062013 71 360 9.0 12.0 0.00 0.00 0.00 69 927.2
20260905061510 72 360 9.0 13.0 0.00 0.00 0.00 69 927.2
20260905061009 72 360 9.0 14.0 0.00 0.00 0.00 68 927.2
20260905060509 72 360 9.0 14.0 0.00 0.00 0.00 68 927.2
20260905060014 72 360 10.0 13.0 0.00 0.00 0.00 68 927.1
20260905055509 72 360 9.0 13.0 0.00 0.00 0.00 68 927.3
20260905055009 73 360 9.0 13.0 0.00 0.00 0.00 67 927.2
20260905054509 73 360 9.0 13.0 0.00 0.00 0.00 66 927.2
20260905054009 74 360 9.0 14.0 0.00 0.00 0.00 66 927.1
20260905053513 74 360 9.0 14.0 0.00 0.00 0.00 65 927.0
20260905053008 75 360 9.0 13.0 0.00 0.00 0.00 64 927.0
20260905052008 75 360 8.0 12.0 0.00 0.00 0.00 64 926.9
20260905051509 75 360 8.0 12.0 0.00 0.00 0.00 64 926.9
20260905051008 75 360 9.0 12.0 0.00 0.00 0.00 64 926.9
20260905050510 75 360 7.0 11.0 0.00 0.00 0.00 63 926.9
20260905050008 76 135 8.0 13.0 0.00 0.00 0.00 62 926.9
20260905045508 77 123 9.0 14.0 0.00 0.00 0.00 62 926.9
20260905045008 77 128 9.0 14.0 0.00 0.00 0.00 61 927.0
20260905044508 77 112 10.0 14.0 0.00 0.00 0.00 61 926.9
20260905044007 77 114 10.0 14.0 0.00 0.00 0.00 60 926.9
20260905043507 78 112 9.0 13.0 0.00 0.00 0.00 60 926.9
20260905043008 78 106 10.0 13.0 0.00 0.00 0.00 60 926.8
20260905042007 79 123 10.0 15.0 0.00 0.00 0.00 58 926.8
20260905041507 79 113 10.0 14.0 0.00 0.00 0.00 58 926.9
20260905041007 79 117 10.0 15.0 0.00 0.00 0.00 57 926.8
20260905040507 80 123 10.0 15.0 0.00 0.00 0.00 56 926.7
20260905040006 81 115 10.0 15.0 0.00 0.00 0.00 56 926.8
20260905035506 81 116 12.0 18.0 0.00 0.00 0.00 55 926.8
20260905035006 81 110 11.0 18.0 0.00 0.00 0.00 55 926.8
20260905034506 81 101 10.0 15.0 0.00 0.00 0.00 55 926.8
20260905034005 81 114 10.0 15.0 0.00 0.00 0.00 55 926.8
20260905033508 81 100 9.0 14.0 0.00 0.00 0.00 55 926.9
20260905033015 81 101 9.0 13.0 0.00 0.00 0.00 54 927.0
20260905032006 82 82 10.0 15.0 0.00 0.00 0.00 53 926.9
20260905031505 83 81 8.0 16.0 0.00 0.00 0.00 52 926.9
20260905031005 83 98 10.0 18.0 0.00 0.00 0.00 52 927.0
20260905030505 83 86 10.0 18.0 0.00 0.00 0.00 52 927.0
20260905030006 83 101 11.0 16.0 0.00 0.00 0.00 52 926.9
20260905025508 83 94 11.0 18.0 0.00 0.00 0.00 52 926.9
20260905025004 83 96 12.0 18.0 0.00 0.00 0.00 52 926.9
20260905024505 84 73 10.0 16.0 0.00 0.00 0.00 51 927.0
20260905024006 84 108 10.0 21.0 0.00 0.00 0.00 51 926.9
20260905023504 84 91 11.0 21.0 0.00 0.00 0.00 51 926.9
20260905023023 84 107 11.0 16.0 0.00 0.00 0.00 51 926.8
20260905022004 84 83 11.0 16.0 0.00 0.00 0.00 50 926.8
20260905021504 84 98 10.0 16.0 0.00 0.00 0.00 50 926.8
20260905021004 85 90 9.0 15.0 0.00 0.00 0.00 49 926.7
20260905020505 85 91 11.0 15.0 0.00 0.00 0.00 49 926.7
20260905020005 85 101 8.0 12.0 0.00 0.00 0.00 49 926.6
20260905015503 85 92 8.0 14.0 0.00 0.00 0.00 48 926.7
20260905015002 85 80 8.0 14.0 0.00 0.00 0.00 47 926.6
20260905014502 84 84 7.0 11.0 0.00 0.00 0.00 46 926.6
20260905014002 84 78 5.0 8.0 0.00 0.00 0.00 46 926.4
20260905013505 85 67 4.0 9.0 0.00 0.00 0.00 45 926.3
20260905013002 85 74 5.0 9.0 0.00 0.00 0.00 44 926.3
20260905012004 86 70 5.0 9.0 0.00 0.00 0.00 42 926.3
20260905011503 87 92 6.0 9.0 0.00 0.00 0.00 40 926.4
20260905011003 89 92 3.0 10.0 0.00 0.00 0.00 39 926.3
20260905010503 89 86 7.0 10.0 0.00 0.00 0.00 38 926.3
20260905010004 90 84 7.0 11.0 0.00 0.00 0.00 37 926.3
20260905005502 90 82 6.0 13.0 0.00 0.00 0.00 37 926.2
20260905005002 90 83 8.0 14.0 0.00 0.00 0.00 36 926.2
20260905004502 90 78 7.0 14.0 0.00 0.00 0.00 36 926.2
20260905004002 91 88 9.0 14.0 0.00 0.00 0.00 36 926.2
20260905003501 91 99 8.0 15.0 0.00 0.00 0.00 36 926.3
20260905003001 91 91 9.0 15.0 0.00 0.00 0.00 35 926.3
20260905002002 91 93 9.0 13.0 0.00 0.00 0.00 35 926.2
20260905001609 92 96 7.0 12.0 0.00 0.00 0.00 35 926.2
20260905001503 92 95 8.0 12.0 0.00 0.00 0.00 35 926.2
20260905001100 92 97 7.0 13.0 0.00 0.00 0.00 36 926.0
20260905000600 92 87 6.0 13.0 0.00 0.00 0.00 35 926.1
20260905000118 92 73 8.0 14.0 0.00 0.00 0.00 35 926.2
20260904235601 92 93 9.0 14.0 0.00 0.00 0.00 35 926.2
20260904235102 93 116 7.0 12.0 0.00 0.00 0.00 34 926.2
20260904234600 93 117 7.0 11.0 0.00 0.00 0.00 35 926.3
20260904234058 92 117 6.0 13.0 0.00 0.00 0.00 34 926.3
20260904233600 93 106 9.0 13.0 0.00 0.00 0.00 33 926.3
20260904233059 93 105 8.0 12.0 0.00 0.00 0.00 35 926.2
20260904232103 92 96 7.0 14.0 0.00 0.00 0.00 35 926.3
20260904231603 93 124 8.0 14.0 0.00 0.00 0.00 35 926.3
20260904231059 93 101 10.0 15.0 0.00 0.00 0.00 35 926.2
20260904230559 93 101 8.0 15.0 0.00 0.00 0.00 36 926.2
20260904230058 92 105 7.0 15.0 0.00 0.00 0.00 37 926.3
20260904225557 92 108 9.0 16.0 0.00 0.00 0.00 36 926.3
20260904225059 93 104 9.0 16.0 0.00 0.00 0.00 36 926.4
20260904224602 92 121 10.0 18.0 0.00 0.00 0.00 36 926.3
20260904224056 92 119 9.0 16.0 0.00 0.00 0.00 36 926.4
20260904223551 92 115 11.0 16.0 0.00 0.00 0.00 37 926.4
20260904223053 92 116 12.0 19.0 0.00 0.00 0.00 35 926.4
20260904222049 92 129 10.0 19.0 0.00 0.00 0.00 35 926.6
20260904221546 92 96 11.0 18.0 0.00 0.00 0.00 34 926.6
20260904221045 92 96 11.0 21.0 0.00 0.00 0.00 35 926.5
20260904220544 91 123 12.0 21.0 0.00 0.00 0.00 34 926.7
20260904220107 91 126 9.0 21.0 0.00 0.00 0.00 34 926.7
20260904215542 92 118 15.0 21.0 0.00 0.00 0.00 35 926.7
20260904215045 91 121 12.0 21.0 0.00 0.00 0.00 35 926.6
20260904214541 91 121 12.0 21.0 0.00 0.00 0.00 36 926.7
20260904214041 92 125 12.0 20.0 0.00 0.00 0.00 35 926.7
20260904213542 91 131 12.0 22.0 0.00 0.00 0.00 36 926.7
20260904213038 91 130 14.0 22.0 0.00 0.00 0.00 36 926.7
20260904212036 91 127 14.0 22.0 0.00 0.00 0.00 36 926.8
20260904211548 90 128 15.0 24.0 0.00 0.00 0.00 37 926.9
20260904211035 90 139 13.0 24.0 0.00 0.00 0.00 38 926.8
20260904210533 90 144 15.0 23.0 0.00 0.00 0.00 39 926.9
20260904210037 89 130 15.0 24.0 0.00 0.00 0.00 39 926.9
20260904205531 89 123 14.0 24.0 0.00 0.00 0.00 40 926.9
20260904205034 89 130 15.0 24.0 0.00 0.00 0.00 40 927.0
20260904204535 89 97 15.0 22.0 0.00 0.00 0.00 40 926.9
20260904204030 89 100 12.0 23.0 0.00 0.00 0.00 41 926.9
20260904203534 89 128 16.0 23.0 0.00 0.00 0.00 41 927.0
20260904203035 88 132 15.0 22.0 0.00 0.00 0.00 41 927.0
20260904202027 88 132 17.0 26.0 0.00 0.00 0.00 43 927.0
20260904201526 88 115 17.0 26.0 0.00 0.00 0.00 44 927.0
20260904201026 87 117 16.0 26.0 0.00 0.00 0.00 45 927.1
20260904200525 87 92 16.0 25.0 0.00 0.00 0.00 45 927.0
20260904200032 87 125 16.0 25.0 0.00 0.00 0.00 46 926.9
20260904195525 87 130 18.0 25.0 0.00 0.00 0.00 46 927.1
20260904195023 87 127 19.0 25.0 0.00 0.00 0.00 46 927.1
20260904194544 86 105 14.0 25.0 0.00 0.00 0.00 48 927.1
20260904194025 86 122 16.0 29.0 0.00 0.00 0.00 46 927.1
20260904193524 86 105 19.0 29.0 0.00 0.00 0.00 48 927.1
20260904193022 86 130 19.0 26.0 0.00 0.00 0.00 47 927.2
20260904192020 85 107 18.0 28.0 0.00 0.00 0.00 48 927.2
20260904191528 85 132 20.0 28.0 0.00 0.00 0.00 48 927.4
20260904191019 85 131 17.0 26.0 0.00 0.00 0.00 48 927.4
20260904190518 85 122 17.0 26.0 0.00 0.00 0.00 49 927.5
20260904190017 84 137 17.0 27.0 0.00 0.00 0.00 49 927.5
20260904185517 84 134 19.0 27.0 0.00 0.00 0.00 50 927.7
20260904185017 84 113 21.0 27.0 0.00 0.00 0.00 49 927.8
20260904184518 84 135 15.0 25.0 0.00 0.00 0.00 50 927.7
20260904184014 83 125 16.0 28.0 0.00 0.00 0.00 50 927.8
20260904183513 83 125 18.0 28.0 0.00 0.00 0.00 50 927.9
20260904183012 83 113 18.0 27.0 0.00 0.00 0.00 50 928.0
20260904182011 83 121 20.0 28.0 0.00 0.00 0.00 50 928.1
20260904181511 83 111 19.0 28.0 0.00 0.00 0.00 49 928.1
20260904181010 83 123 17.0 30.0 0.00 0.00 0.00 49 928.2
20260904180509 83 137 20.0 30.0 0.00 0.00 0.00 48 928.1
20260904180008 83 112 21.0 31.0 0.00 0.00 0.00 48 928.2
20260904175508 83 107 18.0 31.0 0.00 0.00 0.00 46 928.3
20260904175007 83 129 20.0 32.0 0.00 0.00 0.00 46 928.3
20260904174507 82 130 19.0 33.0 0.00 0.00 0.00 48 928.3
20260904174005 82 146 21.0 33.0 0.00 0.00 0.00 47 928.3
20260904173504 82 140 19.0 29.0 0.00 0.00 0.00 51 928.3
20260904173005 81 110 22.0 29.0 0.00 0.00 0.00 49 928.4
20260904172002 80 120 19.0 31.0 0.00 0.00 0.00 54 928.5
20260904171500 80 115 20.0 30.0 0.00 0.00 0.00 58 928.5
20260904171103 79 111 21.0 28.0 0.00 0.00 0.00 57 928.6
20260904170558 79 115 19.0 29.0 0.00 0.00 0.00 58 928.7
20260904170058 78 132 21.0 29.0 0.00 0.00 0.00 60 928.8
20260904165557 78 111 18.0 28.0 0.00 0.00 0.00 60 929.0
20260904165056 78 113 17.0 27.0 0.00 0.00 0.00 60 929.1
20260904164555 78 114 17.0 30.0 0.00 0.00 0.00 61 929.1
20260904164053 77 121 20.0 30.0 0.00 0.00 0.00 62 929.2
20260904163551 77 107 18.0 27.0 0.00 0.00 0.00 65 929.2
20260904163103 76 123 16.0 25.0 0.00 0.00 0.00 67 929.3
20260904162050 76 128 17.0 27.0 0.00 0.00 0.00 67 929.3
20260904161549 76 108 16.0 27.0 0.00 0.00 0.00 67 929.4
20260904161050 76 123 15.0 25.0 0.00 0.00 0.00 68 929.4
20260904160547 76 360 17.0 25.0 0.00 0.00 0.00 70 929.4
20260904160048 75 360 16.0 25.0 0.00 0.00 0.00 69 929.4
20260904155543 75 360 15.0 25.0 0.00 0.00 0.00 71 929.5
20260904155048 73 360 14.0 21.0 0.00 0.00 0.00 76 929.5
20260904154543 72 360 15.0 21.0 0.00 0.00 0.00 77 929.6
20260904154039 72 107 14.0 20.0 0.00 0.00 0.00 79 929.6
20260904153538 71 360 12.0 20.0 0.00 0.00 0.00 80 929.7
20260904153045 71 360 13.0 21.0 0.00 0.00 0.00 80 929.7
20260904152041 70 360 13.0 20.0 0.00 0.00 0.00 82 929.8
20260904151538 69 360 14.0 19.0 0.00 0.00 0.00 82 929.8
20260904151040 69 360 13.0 20.0 0.00 0.00 0.00 82 930.0
20260904150536 69 360 14.0 19.0 0.00 0.00 0.00 83 929.7
20260904150039 68 360 13.0 20.0 0.00 0.00 0.00 84 929.8
20260904145534 68 360 13.0 20.0 0.00 0.00 0.00 84 929.8
20260904145033 68 360 12.0 18.0 0.00 0.00 0.00 85 929.9
20260904144535 68 360 13.0 18.0 0.00 0.00 0.00 85 929.9
20260904144031 67 360 11.0 18.0 0.00 0.00 0.00 86 930.0
20260904143530 67 360 11.0 18.0 0.00 0.00 0.00 87 929.9
20260904143031 66 360 10.0 16.0 0.00 0.00 0.00 87 929.9
20260904142058 66 360 11.0 15.0 0.00 0.00 0.00 88 930.0
20260904141559 66 360 9.0 16.0 0.00 0.00 0.00 89 930.0
20260904141056 65 360 10.0 16.0 0.00 0.00 0.00 89 930.1
20260904140555 65 360 8.0 13.0 0.00 0.00 0.00 91 930.1
20260904140054 65 360 9.0 13.0 0.00 0.00 0.00 92 930.1
20260904135554 64 125 6.0 10.0 0.00 0.00 0.00 93 930.1
20260904135050 64 115 6.0 9.0 0.00 0.00 0.00 93 930.1
20260904134550 63 360 6.0 10.0 0.00 0.00 0.00 94 930.1
20260904134055 63 360 7.0 11.0 0.00 0.00 0.00 94 930.0
20260904133549 62 119 8.0 11.0 0.00 0.00 0.00 94 929.9
20260904133057 62 360 8.0 11.0 0.00 0.00 0.00 94 930.0
20260904132018 61 360 7.0 10.0 0.00 0.00 0.00 95 930.0
20260904131517 61 360 6.0 13.0 0.00 0.00 0.00 95 930.0
20260904131017 60 360 7.0 13.0 0.00 0.00 0.00 95 929.9
20260904130521 60 360 7.0 11.0 0.00 0.00 0.00 95 929.8
20260904130016 60 360 8.0 11.0 0.00 0.00 0.00 95 929.9
20260904125516 59 360 7.0 10.0 0.00 0.00 0.00 95 929.8
20260904125019 59 360 7.0 9.0 0.00 0.00 0.00 95 929.8
20260904124616 59 360 7.0 9.0 0.00 0.00 0.00 95 929.7
20260904124016 58 360 6.0 8.0 0.00 0.00 0.00 94 929.8
20260904123519 58 360 6.0 8.0 0.00 0.00 0.00 94 929.8
20260904123015 58 360 5.0 8.0 0.00 0.00 0.00 94 929.8
20260904122016 58 360 6.0 10.0 0.00 0.00 0.00 94 929.8
20260904121516 58 360 7.0 10.0 0.00 0.00 0.00 94 929.8
20260904121018 58 360 6.0 9.0 0.00 0.00 0.00 94 929.8
20260904120514 58 360 6.0 10.0 0.00 0.00 0.00 94 929.7
20260904120014 58 360 7.0 11.0 0.00 0.00 0.00 94 929.8
20260904115514 58 360 7.0 11.0 0.00 0.00 0.00 94 929.9
20260904115014 58 360 8.0 11.0 0.00 0.00 0.00 94 929.8
20260904114514 58 360 8.0 11.0 0.00 0.00 0.00 94 929.8
20260904114013 58 360 8.0 11.0 0.00 0.00 0.00 93 929.9
20260904113513 58 360 9.0 13.0 0.00 0.00 0.00 93 929.9
20260904113018 59 360 9.0 13.0 0.00 0.00 0.00 94 929.8
20260904112010 58 360 8.0 11.0 0.00 0.00 0.00 94 929.7
20260904111511 58 360 8.0 11.0 0.00 0.00 0.00 93 929.6
20260904111011 58 360 7.0 11.0 0.00 0.00 0.00 93 929.7
20260904110509 58 360 8.0 11.0 0.00 0.00 0.00 93 929.8
20260904110020 58 360 8.0 11.0 0.00 0.00 0.00 93 929.8
20260904105508 58 360 7.0 10.0 0.00 0.00 0.00 93 929.9
20260904105008 59 360 8.0 10.0 0.00 0.00 0.00 92 929.9
20260904104506 59 360 7.0 10.0 0.00 0.00 0.00 92 929.9
20260904104004 59 360 7.0 9.0 0.00 0.00 0.00 92 930.0
20260904103503 59 360 7.0 9.0 0.00 0.00 0.00 92 929.9
20260904103003 59 360 7.0 10.0 0.00 0.00 0.00 91 930.0
20260904102004 60 360 7.0 11.0 0.00 0.00 0.00 91 930.0
20260904101503 60 360 8.0 12.0 0.00 0.00 0.00 91 930.0
20260904101002 60 360 9.0 12.0 0.00 0.00 0.00 91 930.0
20260904100504 60 360 7.0 10.0 0.00 0.00 0.00 90 930.0
20260904095559 61 360 7.0 10.0 0.00 0.00 0.00 89 930.0
20260904095100 61 360 7.0 10.0 0.00 0.00 0.00 89 929.9
20260904094557 61 360 7.0 11.0 0.00 0.00 0.00 89 929.9
20260904094056 62 360 8.0 11.0 0.00 0.00 0.00 89 930.0
20260904093556 62 360 8.0 11.0 0.00 0.00 0.00 89 929.9
20260904093113 62 360 8.0 13.0 0.00 0.00 0.00 88 929.9
20260904092655 62 360 9.0 12.0 0.00 0.00 0.00 88 929.9
20260904092057 62 360 9.0 12.0 0.00 0.00 0.00 88 929.9
20260904091554 62 360 8.0 11.0 0.00 0.00 0.00 87 929.9
20260904091054 62 360 8.0 10.0 0.00 0.00 0.00 87 929.9
20260904090553 62 360 7.0 10.0 0.00 0.00 0.00 87 930.0
20260904090054 62 360 7.0 10.0 0.00 0.00 0.00 87 930.0
20260904085653 62 360 6.0 10.0 0.00 0.00 0.00 87 930.0
20260904085052 62 360 8.0 10.0 0.00 0.00 0.00 87 930.0
20260904084552 62 360 8.0 10.0 0.00 0.00 0.00 87 930.0
20260904084056 62 360 7.0 10.0 0.00 0.00 0.00 87 930.0
20260904083551 62 360 7.0 10.0 0.00 0.00 0.00 87 930.0
20260904083053 61 360 7.0 10.0 0.00 0.00 0.00 86 930.0
20260904082652 62 360 5.0 7.0 0.00 0.00 0.00 85 929.9
20260904082050 62 360 5.0 7.0 0.00 0.00 0.00 85 929.9
20260904081550 62 360 5.0 8.0 0.00 0.00 0.00 85 929.9
20260904081054 62 360 6.0 10.0 0.00 0.00 0.00 85 930.0
20260904080550 62 360 7.0 10.0 0.00 0.00 0.00 84 930.0
20260904080051 62 360 8.0 10.0 0.00 0.00 0.00 84 930.1
20260904075547 62 360 6.0 8.0 0.00 0.00 0.00 84 930.1
20260904075050 63 360 5.0 8.0 0.00 0.00 0.00 83 930.0
20260904074549 63 360 6.0 8.0 0.00 0.00 0.00 82 930.1
20260904074047 63 360 5.0 9.0 0.00 0.00 0.00 82 930.1
20260904073548 63 360 6.0 9.0 0.00 0.00 0.00 82 930.0
20260904073046 63 360 7.0 9.0 0.00 0.00 0.00 83 930.1
20260904072546 62 360 6.0 8.0 0.00 0.00 0.00 83 930.1
20260904072048 62 360 6.0 8.0 0.00 0.00 0.00 83 930.0
20260904071546 62 360 4.0 7.0 0.00 0.00 0.00 81 929.9
20260904071043 62 360 3.0 6.0 0.00 0.00 0.00 80 929.8
20260904070545 63 360 4.0 8.0 0.00 0.00 0.00 81 929.8
20260904070047 63 360 5.0 9.0 0.00 0.00 0.00 81 929.9
20260904065542 62 360 6.0 8.0 0.00 0.00 0.00 80 930.0
20260904065044 62 360 5.0 7.0 0.00 0.00 0.00 79 929.9